TimeAKST,TemperatureF,Dew PointF,Humidity,Sea Level PressureIn,VisibilityMPH,Wind Direction,Wind SpeedMPH,Gust SpeedMPH,PrecipitationIn,Events,Conditions,WindDirDegrees,DateUTC
12:16 AM,-11.2,-16.6,77,30.24,10.0,NNW,11.5,-,N/A,,Clear,340,2013-02-17 09:16:00
12:36 AM,-14.8,-23.8,64,30.24,10.0,NNW,5.8,-,N/A,,Clear,330,2013-02-17 09:36:00
12:56 AM,-9.4,-18.4,65,30.25,10.0,Calm,Calm,-,N/A,,Clear,0,2013-02-17 09:56:00
1:16 AM,-13.0,-23.8,59,30.25,10.0,NW,6.9,-,N/A,,Clear,320,2013-02-17 10:16:00
1:36 AM,-11.2,-23.8,54,30.26,10.0,NW,4.6,-,N/A,,Clear,320,2013-02-17 10:36:00
1:56 AM,-11.2,-18.4,70,30.25,10.0,NW,8.1,-,N/A,,Clear,320,2013-02-17 10:56:00
2:16 AM,-11.2,-22.0,59,30.26,10.0,NW,6.9,-,N/A,,Clear,320,2013-02-17 11:16:00
2:36 AM,-11.2,-23.8,54,30.26,10.0,North,9.2,-,N/A,,Clear,360,2013-02-17 11:36:00
2:56 AM,-11.2,-20.2,64,30.26,10.0,North,6.9,-,N/A,,Clear,10,2013-02-17 11:56:00
3:36 AM,-13.0,-20.2,70,30.26,10.0,NNW,6.9,-,N/A,,Clear,330,2013-02-17 12:36:00
3:56 AM,-7.6,-18.4,59,30.26,10.0,NNE,9.2,-,N/A,,Clear,20,2013-02-17 12:56:00
4:16 AM,-11.2,-23.8,54,30.26,10.0,NNW,5.8,-,N/A,,Clear,340,2013-02-17 13:16:00
4:36 AM,-13.0,-27.4,49,30.26,10.0,NW,6.9,-,N/A,,Clear,320,2013-02-17 13:36:00
4:56 AM,-11.2,-14.8,84,30.26,10.0,NW,11.5,-,N/A,,Clear,320,2013-02-17 13:56:00
5:16 AM,-9.4,-23.8,49,30.27,10.0,NNW,11.5,-,N/A,,Clear,330,2013-02-17 14:16:00
5:36 AM,-13.0,-27.4,49,30.27,10.0,NNW,10.4,-,N/A,,Clear,340,2013-02-17 14:36:00
5:56 AM,-14.8,-23.8,64,30.27,10.0,NNW,11.5,-,N/A,,Clear,340,2013-02-17 14:56:00
6:16 AM,-14.8,-23.8,64,30.28,10.0,NNW,8.1,-,N/A,,Clear,340,2013-02-17 15:16:00
6:36 AM,-13.0,-23.8,59,30.28,10.0,NNW,8.1,-,N/A,,Clear,340,2013-02-17 15:36:00
6:56 AM,-16.6,-29.2,53,30.28,10.0,NNW,11.5,-,N/A,,Clear,330,2013-02-17 15:56:00
7:16 AM,-16.6,-23.8,70,30.29,10.0,NNW,10.4,-,N/A,,Clear,340,2013-02-17 16:16:00
7:36 AM,-13.0,-20.2,70,30.29,10.0,NNW,11.5,-,N/A,,Clear,340,2013-02-17 16:36:00
7:56 AM,-14.8,-27.4,53,30.29,10.0,NNW,11.5,-,N/A,,Clear,330,2013-02-17 16:56:00
8:16 AM,-16.6,-27.4,58,30.29,10.0,NNW,10.4,-,N/A,,Clear,330,2013-02-17 17:16:00
8:36 AM,-16.6,-20.2,84,30.30,10.0,NNW,9.2,-,N/A,,Clear,330,2013-02-17 17:36:00
8:56 AM,-14.8,-23.8,64,30.30,10.0,NNW,13.8,-,N/A,,Clear,330,2013-02-17 17:56:00
9:16 AM,-9.4,-16.6,71,30.31,10.0,North,13.8,-,N/A,,Clear,350,2013-02-17 18:16:00
9:36 AM,-11.2,-25.6,49,30.31,10.0,North,11.5,-,N/A,,Clear,360,2013-02-17 18:36:00
9:56 AM,-11.2,-25.6,49,30.31,10.0,NNW,10.4,-,N/A,,Clear,340,2013-02-17 18:56:00
10:16 AM,-14.8,-23.8,64,30.32,10.0,NW,10.4,-,N/A,,Clear,320,2013-02-17 19:16:00
10:36 AM,-11.2,-25.6,49,30.33,10.0,NW,11.5,-,N/A,,Clear,320,2013-02-17 19:36:00
10:56 AM,-11.2,-23.8,54,30.33,10.0,NW,9.2,-,N/A,,Clear,320,2013-02-17 19:56:00
11:16 AM,-13.0,-29.2,44,30.33,10.0,NNW,10.4,-,N/A,,Clear,340,2013-02-17 20:16:00
11:36 AM,-14.8,-23.8,64,30.34,10.0,NNW,10.4,-,N/A,,Clear,340,2013-02-17 20:36:00
11:56 AM,-11.2,-23.8,54,30.35,10.0,NNW,9.2,-,N/A,,Clear,340,2013-02-17 20:56:00
12:16 PM,-9999,-9999,N/A,30.35,10.0,NNW,13.8,-,N/A,,Clear,340,2013-02-17 21:16:00
12:36 PM,-9.4,-20.2,59,30.36,10.0,NNW,11.5,-,N/A,,Clear,340,2013-02-17 21:36:00
12:56 PM,-7.6,-20.2,54,30.36,10.0,North,12.7,-,N/A,,Clear,350,2013-02-17 21:56:00
1:16 PM,-9.4,-23.8,49,30.37,10.0,NNW,10.4,-,N/A,,Clear,340,2013-02-17 22:16:00
1:36 PM,-7.6,-20.2,54,30.37,10.0,NNW,10.4,-,N/A,,Clear,340,2013-02-17 22:36:00
1:56 PM,-7.6,-20.2,54,30.38,10.0,NNW,11.5,-,N/A,,Clear,330,2013-02-17 22:56:00
2:16 PM,-5.8,-18.4,55,30.38,10.0,NNW,6.9,-,N/A,,Clear,340,2013-02-17 23:16:00
2:36 PM,-5.8,-18.4,55,30.38,10.0,North,13.8,-,N/A,,Clear,360,2013-02-17 23:36:00
2:56 PM,-2.2,-14.8,55,30.39,10.0,North,12.7,-,N/A,,Clear,10,2013-02-17 23:56:00
3:16 PM,-5.8,-20.2,50,30.39,10.0,North,11.5,-,N/A,,Clear,350,2013-02-18 00:16:00
3:36 PM,-5.8,-20.2,50,30.39,10.0,NNW,12.7,-,N/A,,Clear,340,2013-02-18 00:36:00
3:56 PM,-7.6,-23.8,45,30.40,10.0,NNW,12.7,-,N/A,,Clear,340,2013-02-18 00:56:00
4:16 PM,-7.6,-20.2,54,30.40,10.0,NNW,10.4,-,N/A,,Clear,340,2013-02-18 01:16:00
4:36 PM,-7.6,-22.0,50,30.40,10.0,NNW,11.5,-,N/A,,Clear,340,2013-02-18 01:36:00
4:56 PM,-7.6,-20.2,54,30.40,10.0,North,11.5,-,N/A,,Clear,350,2013-02-18 01:56:00
5:16 PM,-7.6,-20.2,54,30.42,10.0,North,11.5,-,N/A,,Clear,350,2013-02-18 02:16:00
5:36 PM,-9.4,-23.8,49,30.42,10.0,North,11.5,-,N/A,,Clear,350,2013-02-18 02:36:00
5:56 PM,-9.4,-23.8,49,30.42,10.0,North,10.4,-,N/A,,Clear,350,2013-02-18 02:56:00
6:16 PM,-9.4,-23.8,49,30.43,10.0,North,12.7,-,N/A,,Clear,350,2013-02-18 03:16:00
6:36 PM,-9.4,-22.0,54,30.44,10.0,NNW,13.8,-,N/A,,Clear,340,2013-02-18 03:36:00
6:56 PM,-9.4,-23.8,49,30.44,10.0,NNW,12.7,-,N/A,,Clear,340,2013-02-18 03:56:00
7:16 PM,-11.2,-25.6,49,30.45,10.0,NNW,11.5,-,N/A,,Clear,340,2013-02-18 04:16:00
7:36 PM,-13.0,-23.8,59,30.46,10.0,NNW,11.5,-,N/A,,Clear,340,2013-02-18 04:36:00
7:56 PM,-13.0,-29.2,44,30.46,10.0,NNW,15.0,-,N/A,,Clear,330,2013-02-18 04:56:00
8:16 PM,-13.0,-20.2,70,30.46,10.0,NNW,9.2,-,N/A,,Clear,330,2013-02-18 05:16:00
8:36 PM,-14.8,-29.2,48,30.47,10.0,NNW,8.1,-,N/A,,Clear,340,2013-02-18 05:36:00
8:56 PM,-11.2,-23.8,54,30.47,10.0,NW,6.9,-,N/A,,Clear,320,2013-02-18 05:56:00
9:16 PM,-13.0,-25.6,53,30.47,10.0,NW,9.2,-,N/A,,Clear,320,2013-02-18 06:16:00
9:36 PM,-14.8,-25.6,58,30.47,10.0,NW,8.1,-,N/A,,Clear,320,2013-02-18 06:36:00
9:56 PM,-14.8,-29.2,48,30.47,10.0,NW,6.9,-,N/A,,Clear,310,2013-02-18 06:56:00
10:16 PM,-14.8,-25.6,58,30.48,10.0,NNE,5.8,-,N/A,,Clear,20,2013-02-18 07:16:00
10:36 PM,-13.0,-16.6,84,30.48,10.0,NNW,6.9,-,N/A,,Clear,340,2013-02-18 07:36:00
10:56 PM,-16.6,-9999,N/A,30.48,10.0,North,4.6,-,N/A,,Clear,360,2013-02-18 07:56:00
11:16 PM,-16.6,-27.4,58,30.48,10.0,NW,9.2,-,N/A,,Clear,320,2013-02-18 08:16:00
11:36 PM,-16.6,-25.6,64,30.48,10.0,NNW,6.9,-,N/A,,Clear,340,2013-02-18 08:36:00
11:56 PM,-18.4,-9999,N/A,30.49,10.0,WNW,8.1,-,N/A,,Clear,300,2013-02-18 08:56:00